Weather in Vostochnoye

Russia / Krasnoyarsk Krai     53°34′25″N   92°07′45″E
temp.,
°C
wind,
m/s
gust,
m/s
humid.,
%
clouds,
%
prec.,
mm/h
press.,
hPa
HPBL,
m
21 june, mon
mon2101:00+10wsw61296100 3.7 1010508
04:00+8wsw61197100 6.9 1011542
07:00+7wsw71298100 16.3 1013731
10:00+9s2488100 4.6 1015758
13:00+13ese336519 5.0 10121201
16:00+16e22550 0.1 10111041
19:00+14e46735 0.1 1010406
22:00+10ene368355 0.0 101198
22 june, tue
tue2201:00+8ne347816 0.0 101064
04:00+7ne22835 0.0 100919
07:00+11ene257467 0.0 1007207
10:00+16e2362100 0.0 1005607
13:00+19wsw346090 0.0 1006877
16:00+19wnw456263 0.0 1007987
19:00+15wnw4882100 0.1 1008419
22:00+12wnw3599100 8.3 1010240
23 june, wed
wed2301:00+11wsw26100100 14.3 1011252
04:00+10wsw61296100 1.2 1012569
07:00+10wsw41096100 7.6 1014470
10:00+12wsw5985100 0.2 1015834
13:00+14wsw4667100 0.3 10141149
16:00+15wsw3574100 0.9 10141027
19:00+13w2688100 2.4 1015298
22:00+10s11895 0.0 101511
24 june, thu
thu2401:00+8ese22935 0.0 101523
04:00+7e33932 0.0 101353
07:00+10e489110 0.0 1012258
10:00+15e567133 0.0 1008659
13:00+19e3456100 0.0 10051087
16:00+20wnw2258100 0.0 1005734
19:00+18wnw2474100 0.0 1004121
22:00+14e2280100 0.1 100528
25 june, fri
fri2501:00+11nnw3109499 1.3 1009292
04:00+10sw2596100 0.1 1010132
07:00+11sw2792100 0.1 1011366
10:00+14wsw5669100 0.1 10111040
13:00+17wsw465626 0.1 10111782
16:00+18w355224 0.0 10101891
19:00+17sw346939 0.1 1011516
22:00+11sw228194 0.0 101212